Theta_e
332 326 321 323 321 317 315 310 297 302 300 295 298 300 299 306 307 306 306 309 306 311 313 314 314 317 312 313 328 331 331 325 329 320 318 335 346 351 351 349 349 348 348 351 354 355 356 357 357 358 357 357 356 357 357 357 357 356 356 356 356 355 354 354 354 353 353 353 352 352 351 352 352 352 353 351 351 351 351 351 351 351 351 350 349 349 349 348 348 348 348 347 346 346 346 346 347
322 323 323 324 321 316 308 310 300 300 298 295 297 301 303 308 307 304 306 307 315 315 318 316 317 317 318 316 324 333 330 332 335 333 338 342 347 349 351 349 349 347 348 350 352 352 353 354 356 357 357 357 357 357 357 357 357 356 356 356 355 354 354 354 354 353 353 353 352 351 351 351 351 351 351 351 351 352 352 351 351 351 351 350 349 348 348 349 348 348 347 347 347 346 345 346 346
322 321 322 322 317 312 312 309 296 297 296 294 297 300 306 304 305 307 308 309 316 318 319 319 320 318 317 316 322 328 324 338 337 338 337 344 341 345 350 351 349 349 348 348 350 352 352 353 356 356 356 357 356 356 356 356 356 356 356 355 355 354 354 354 353 353 352 352 352 351 350 350 350 350 350 351 353 353 353 352 350 350 349 348 348 347 347 348 347 347 347 346 347 346 346 345 344
329 327 325 314 305 311 306 306 300 297 295 298 299 304 304 304 305 308 312 316 318 320 319 317 314 320 329 325 327 335 332 332 336 337 335 339 341 347 350 350 352 348 346 347 349 351 352 355 356 356 356 356 355 355 355 355 355 355 355 355 354 354 354 353 353 352 352 352 352 351 351 350 350 351 351 352 352 351 351 352 351 348 347 348 347 347 347 347 347 347 348 347 347 346 345 344 344
321 326 325 311 306 304 305 304 302 300 294 299 298 305 306 307 307 309 311 318 319 318 316 316 319 325 334 332 333 326 328 337 339 341 340 343 348 350 351 351 349 345 345 346 349 351 353 355 355 354 354 355 355 355 355 355 355 355 355 355 355 354 353 353 352 352 352 352 351 351 351 350 350 351 352 352 352 352 352 352 351 350 348 348 348 349 347 349 347 347 347 348 348 346 344 344 344
318 321 321 314 304 312 308 299 298 299 301 303 301 303 305 307 307 308 309 313 316 316 317 318 318 320 325 332 337 332 339 328 337 341 342 342 348 350 351 352 348 345 345 348 349 353 353 355 354 354 353 354 355 355 356 356 355 355 354 354 354 354 354 353 352 352 352 351 351 351 350 350 350 351 352 352 351 351 351 351 350 349 348 347 348 347 347 347 347 347 347 348 347 346 344 344 345
313 313 312 310 309 310 301 299 298 299 302 305 302 303 307 307 307 308 308 308 312 317 318 318 321 325 324 332 337 340 343 341 340 341 344 347 349 351 352 350 349 347 348 349 350 352 353 354 353 353 354 355 356 356 356 356 355 355 355 354 354 354 353 352 352 352 352 352 351 351 350 350 350 351 351 351 351 351 351 350 349 349 348 348 348 348 347 347 347 347 347 347 346 345 345 345 346
315 309 308 302 300 304 299 300 300 301 302 306 307 306 308 307 308 307 306 306 307 308 316 319 322 322 324 335 327 338 344 344 344 346 346 347 349 350 352 350 348 347 348 350 351 353 356 353 353 353 354 354 355 356 355 355 355 354 354 354 354 353 352 352 352 352 352 352 351 351 350 350 350 351 351 352 352 351 350 349 349 349 349 348 348 348 347 347 347 347 347 347 346 346 346 346 345
311 309 311 302 297 301 298 297 299 304 304 307 307 310 311 308 308 306 306 308 309 311 313 316 320 317 325 332 332 338 341 346 347 348 348 348 351 353 353 350 348 348 349 349 352 352 351 353 352 353 354 354 354 355 355 355 354 354 354 354 353 353 352 351 352 351 351 352 351 350 349 349 350 350 350 350 350 349 349 349 349 348 349 348 348 347 347 348 349 348 347 346 346 346 346 345 345
308 309 302 301 300 294 296 298 297 300 302 306 306 307 307 307 307 307 306 306 307 309 313 318 320 316 329 327 332 338 339 347 346 346 349 351 353 355 354 353 352 351 350 350 350 349 349 355 352 353 353 354 354 354 353 353 354 354 353 353 352 352 352 352 352 352 352 351 351 349 350 350 349 349 350 349 350 349 349 348 348 348 348 348 348 348 348 348 348 347 346 345 345 345 345 344 344
303 308 309 301 297 295 295 297 300 302 303 306 307 308 308 308 307 307 307 306 309 308 311 319 316 322 330 331 332 344 346 347 346 345 350 351 353 353 351 353 353 353 350 350 349 349 350 351 354 352 353 353 353 353 352 353 353 352 352 352 352 352 352 352 352 352 351 350 349 350 349 348 349 349 349 348 349 349 348 348 348 347 347 347 347 347 347 347 346 346 345 345 344 345 345 344 342
301 303 305 298 298 297 297 298 301 303 304 305 305 307 309 308 309 306 306 305 307 308 309 315 318 331 329 331 332 340 345 346 347 348 350 352 351 352 351 350 352 352 351 348 348 349 348 350 350 354 352 352 352 352 352 352 352 352 352 352 352 352 352 352 352 351 350 349 349 349 348 348 348 349 348 348 349 348 348 347 347 346 346 346 346 346 346 346 345 344 345 344 343 343 343 342 342
303 304 301 298 297 299 300 299 300 303 303 304 305 307 311 309 307 308 308 308 308 307 308 316 328 330 323 329 337 342 341 345 347 349 350 351 351 351 351 351 352 351 350 349 347 347 348 347 348 350 351 352 352 351 352 351 351 351 351 351 351 350 351 352 351 349 348 348 347 348 348 347 348 348 348 348 348 348 348 347 347 347 346 346 345 345 345 345 345 344 343 343 342 342 342 342 342
305 305 303 297 301 299 298 299 301 300 300 305 306 309 309 308 309 310 309 307 308 307 318 331 329 333 330 332 333 336 340 345 346 348 348 350 351 350 350 350 351 350 349 348 345 347 347 346 348 347 350 349 350 351 351 350 350 350 349 350 351 351 351 351 348 345 341 342 343 344 347 348 348 348 347 347 347 348 348 347 347 346 346 346 345 344 343 343 343 342 342 342 341 341 341 340 341
306 308 303 301 300 300 301 297 299 300 300 306 308 308 308 310 309 311 312 309 310 313 325 333 330 328 324 328 327 334 341 345 346 348 348 349 349 349 349 350 350 348 347 346 345 344 345 346 346 348 348 347 348 349 350 349 348 347 347 349 347 347 350 348 345 343 344 343 342 343 344 346 345 345 347 347 347 347 347 346 347 346 345 345 343 342 341 341 341 341 342 342 341 341 340 339 339
308 307 304 299 298 298 300 300 301 300 300 306 307 309 308 309 313 311 313 314 313 317 325 321 329 324 330 327 332 340 343 344 347 348 347 347 348 348 347 347 347 346 346 346 344 344 344 345 346 346 345 346 349 349 348 348 348 346 346 346 345 346 345 344 341 342 345 343 342 341 344 342 342 343 346 346 347 347 347 345 346 345 345 343 342 341 341 341 342 342 341 339 340 339 339 339 339
310 307 299 299 296 298 301 300 302 298 303 305 308 308 305 306 315 315 320 317 312 317 328 329 329 331 328 329 339 343 344 346 347 346 347 345 345 344 345 345 344 344 344 346 346 345 345 345 345 344 345 346 346 346 347 345 344 342 340 341 345 347 346 344 342 341 342 343 343 342 340 340 341 341 342 345 346 345 346 346 345 345 344 342 342 342 341 341 342 341 340 339 339 340 338 340 341
308 301 298 297 300 299 303 302 304 306 303 306 307 308 306 305 314 315 319 318 317 325 325 330 339 339 336 341 344 344 344 344 345 342 342 342 342 341 341 342 342 341 342 341 344 345 345 345 346 343 343 344 346 345 344 344 342 341 340 341 345 347 345 342 341 340 343 342 342 341 339 338 341 340 342 344 345 346 345 346 345 344 343 342 342 342 341 341 341 340 340 341 339 340 342 338 338
303 301 300 296 300 303 306 306 307 305 304 307 307 308 307 308 314 318 313 314 315 317 323 329 332 337 340 341 342 342 342 343 343 343 341 341 340 340 339 341 341 342 341 342 342 345 345 345 344 344 344 344 343 344 344 344 342 345 344 345 344 345 343 341 343 344 342 341 342 340 340 340 340 340 344 345 345 345 345 346 345 344 343 343 342 341 342 342 341 342 342 341 341 342 339 336 335
305 302 298 299 303 305 307 308 307 307 307 306 307 307 307 311 312 317 312 313 314 315 319 324 328 331 335 338 339 340 341 341 343 342 340 341 341 340 340 339 340 341 340 341 342 344 344 343 338 340 345 346 344 344 343 344 342 342 343 345 344 341 341 340 341 342 342 341 341 340 340 338 339 339 343 344 344 344 345 345 345 344 343 343 343 342 342 342 341 342 343 342 342 339 334 335 335
306 302 299 302 305 303 305 308 308 308 307 306 307 307 306 308 309 315 315 316 315 319 322 323 325 330 333 337 338 340 340 340 341 342 342 340 341 342 341 341 340 341 341 342 341 342 343 343 338 340 344 344 345 344 343 343 343 343 344 344 342 342 341 341 343 344 342 342 342 341 340 337 339 339 343 345 343 344 343 343 343 343 343 342 343 341 341 339 341 340 339 341 337 334 332 333 335
306 303 304 304 305 303 307 308 308 308 308 307 307 304 305 310 309 309 314 310 312 317 322 323 328 332 334 335 337 339 339 339 340 340 340 341 341 341 342 342 344 342 341 339 340 342 341 338 340 340 344 344 342 344 343 342 344 343 342 343 342 342 340 341 342 342 343 343 342 341 339 340 340 340 342 343 344 343 341 341 341 341 341 340 342 342 341 341 340 339 338 336 335 335 336 337 337
300 304 305 305 305 303 307 308 308 307 306 305 305 307 308 307 306 309 311 312 315 321 321 326 329 333 336 338 338 337 339 339 340 340 340 341 342 342 341 341 339 338 339 338 340 341 341 339 340 340 342 342 340 341 344 343 342 343 344 343 341 341 342 340 339 342 341 341 341 340 341 337 337 335 342 343 344 345 344 345 346 346 344 344 342 343 343 341 340 339 337 334 335 334 336 336 335
304 301 305 305 306 304 307 307 308 307 306 305 307 308 305 305 303 310 308 315 317 322 325 330 332 333 335 334 338 338 339 339 341 342 342 343 343 342 342 341 341 341 339 340 340 341 341 339 341 343 341 339 338 341 343 343 340 340 343 342 342 343 342 341 342 341 340 339 341 341 341 341 337 339 338 342 342 344 342 345 344 344 343 344 345 343 340 340 336 336 335 334 337 336 334 333 333
302 302 305 306 306 306 307 307 307 307 306 307 307 305 305 306 305 308 307 313 321 322 325 327 332 334 335 335 336 338 339 340 340 342 344 342 344 344 343 342 342 341 338 338 338 339 339 337 339 340 339 339 338 338 341 344 343 341 342 342 342 343 341 341 340 338 339 339 338 338 340 341 339 336 340 340 341 340 341 341 342 342 343 342 340 338 341 337 335 336 337 337 335 335 335 334 337
304 303 305 305 305 307 307 307 307 307 306 306 304 304 306 307 308 305 308 312 317 323 323 325 329 330 332 334 335 336 338 339 341 341 342 343 344 342 341 340 340 338 339 336 337 339 339 343 340 338 338 338 340 341 342 343 342 340 342 343 343 343 341 341 339 339 338 338 337 338 340 338 339 335 337 340 338 338 340 340 339 339 340 341 341 339 338 337 337 336 338 338 336 336 335 337 337
306 305 305 305 305 306 307 306 306 307 306 306 303 303 304 307 305 301 308 310 316 317 323 324 326 326 331 333 334 337 338 338 340 341 341 341 341 340 341 340 339 338 338 335 335 335 338 338 339 341 341 341 340 340 342 341 342 342 343 342 342 342 341 339 339 338 339 337 338 338 337 341 342 340 339 338 339 337 336 335 337 339 340 340 341 341 340 338 338 338 336 337 336 334 336 338 337
305 306 305 305 305 306 306 306 306 306 304 306 305 303 304 306 305 302 307 309 315 314 315 321 323 323 326 330 333 335 337 339 339 341 339 338 337 338 339 338 338 338 336 336 335 336 337 338 337 341 341 342 341 339 342 340 340 341 342 342 343 342 339 338 339 339 337 337 335 335 340 342 343 342 338 340 336 335 335 336 340 339 340 342 341 340 341 339 339 337 339 338 337 336 335 337 337
304 305 300 302 304 302 305 303 305 306 303 306 306 302 300 302 301 306 307 309 313 313 313 319 320 320 323 326 331 331 335 337 338 338 339 338 340 340 339 341 339 338 337 338 336 336 337 336 337 339 339 342 342 341 340 341 341 341 342 342 339 341 341 338 337 336 337 336 337 338 338 341 339 337 336 337 336 335 335 335 336 338 339 341 341 341 339 338 339 339 339 338 337 337 337 336 335
305 304 301 300 300 299 303 305 305 304 304 306 305 292 296 300 303 306 309 308 311 311 310 315 318 320 320 323 327 331 334 335 336 337 338 339 340 340 340 341 341 338 335 336 337 339 339 339 338 337 337 335 338 338 336 335 337 340 341 343 342 339 339 337 335 337 338 338 338 340 342 342 342 341 339 338 338 335 335 337 337 337 339 341 340 342 339 339 339 338 338 337 337 335 334 334 335
299 302 302 297 295 295 303 304 304 302 305 305 305 294 296 301 303 307 308 309 310 309 310 313 317 318 320 325 327 328 333 334 335 338 341 341 341 341 341 341 340 340 336 336 336 337 340 338 336 336 337 336 338 338 336 336 335 336 339 338 342 341 338 334 334 338 339 340 340 342 341 341 341 339 340 339 337 338 338 336 337 337 339 339 339 340 339 339 338 338 338 335 337 335 336 336 335
300 296 294 297 294 296 301 305 304 300 303 306 303 295 296 301 303 306 308 309 310 309 310 311 313 318 321 321 322 327 332 335 337 338 341 341 341 340 341 339 336 332 332 334 336 336 336 338 336 334 335 336 337 335 336 336 336 336 337 339 341 338 339 337 340 339 339 341 341 341 342 342 341 340 340 340 340 337 336 336 335 338 338 338 339 340 340 338 339 338 338 337 334 334 335 335 335
299 295 294 293 295 295 297 302 305 304 303 304 301 295 298 299 304 306 308 307 309 309 309 311 312 320 321 321 322 327 329 332 334 337 339 341 341 341 338 332 333 333 334 334 331 333 334 338 338 337 336 337 338 339 336 333 338 337 335 335 338 336 336 339 340 343 341 340 340 340 341 342 342 340 340 340 340 337 336 336 337 338 339 338 339 338 337 338 338 337 335 336 337 334 333 333 334
295 297 293 296 294 296 294 300 304 304 303 299 302 298 299 302 304 308 308 307 308 309 309 311 312 317 321 322 322 324 327 330 331 334 338 341 340 338 332 333 332 332 332 332 332 335 336 336 337 338 336 336 336 336 336 335 334 336 336 337 335 336 336 339 344 340 339 341 340 339 340 341 341 339 340 340 340 337 338 337 338 339 338 339 339 337 336 339 337 335 334 337 336 334 333 333 333
293 295 294 294 296 297 296 296 301 303 302 300 300 299 299 301 303 307 307 307 309 309 309 311 312 316 323 322 323 324 325 329 332 334 337 339 332 328 330 330 331 333 333 332 332 335 335 333 335 335 334 333 334 335 335 334 334 333 333 333 337 337 338 340 341 338 338 341 339 340 340 341 340 340 339 340 339 337 337 336 337 337 336 337 336 334 336 336 336 336 335 335 335 335 334 335 334
296 297 296 296 294 295 296 300 304 303 299 298 299 297 298 301 302 306 309 310 309 309 311 312 312 316 320 320 320 323 323 326 334 337 337 332 329 328 328 330 332 334 332 330 330 333 335 336 337 336 336 338 339 339 337 333 331 329 328 332 334 335 336 336 338 335 336 334 336 337 337 341 339 340 338 339 340 338 337 336 336 336 336 335 335 334 334 335 335 335 335 335 333 334 335 334 335
300 299 299 297 296 297 300 301 303 304 301 299 300 300 300 301 302 305 308 309 309 308 309 311 311 313 316 319 319 321 323 323 332 333 328 327 326 329 330 330 330 332 332 330 330 332 335 335 336 335 337 337 334 334 336 334 332 332 335 334 334 334 333 338 336 335 333 336 334 333 335 337 338 338 337 338 339 336 336 338 337 336 336 335 336 336 336 336 336 335 334 333 332 331 331 334 336
299 298 298 297 298 295 300 301 303 304 303 299 301 299 300 301 303 304 308 308 307 308 308 310 310 311 315 320 320 321 324 325 326 322 325 323 326 329 327 328 330 329 330 331 330 332 334 336 336 336 338 337 335 336 338 337 337 338 335 333 332 331 332 332 329 332 332 333 335 336 336 334 336 336 337 338 336 335 334 334 334 334 336 336 337 337 336 335 335 335 334 331 332 330 330 333 335
300 298 298 296 297 299 301 302 304 304 302 299 300 298 299 302 303 305 306 308 309 310 310 310 311 311 315 318 318 320 322 320 318 321 322 326 328 327 327 328 330 331 330 330 331 331 332 332 333 335 336 337 337 335 338 336 336 337 341 335 336 331 336 334 329 331 333 332 336 334 336 337 334 333 335 335 334 334 334 335 334 334 335 336 335 334 336 336 337 336 334 331 330 331 329 333 334
298 298 296 295 298 296 294 303 303 303 302 300 301 299 300 303 305 306 307 307 309 310 310 310 311 314 317 317 317 318 322 320 321 319 322 325 328 326 325 325 326 329 329 329 330 331 330 331 332 334 335 336 334 334 335 336 336 335 343 338 338 334 329 331 332 332 331 331 331 333 337 339 337 332 328 328 329 334 336 333 332 334 334 337 334 333 334 331 333 334 335 332 332 325 326 330 333
300 299 297 296 297 298 298 298 302 304 303 305 301 299 298 301 300 302 306 309 309 311 311 311 313 317 320 321 320 322 318 319 318 320 322 325 326 324 324 325 326 327 327 328 329 330 330 331 333 335 335 334 334 333 335 336 337 341 336 334 334 332 332 329 327 328 329 328 330 334 335 334 329 327 328 329 329 331 333 335 334 333 333 335 335 330 329 330 329 330 331 331 331 328 326 328 330
296 300 299 299 299 299 299 302 299 298 297 301 299 292 292 299 300 301 303 307 308 310 310 310 311 316 316 316 314 320 320 321 321 321 322 324 326 325 325 326 326 326 327 328 330 330 331 331 333 334 334 334 334 334 335 334 337 336 332 330 328 330 328 330 327 323 325 328 326 333 331 331 335 335 329 329 329 330 331 334 334 330 333 332 333 333 333 331 329 328 329 330 328 330 329 326 327
293 295 300 300 299 299 299 299 298 293 291 299 303 291 289 298 298 301 303 306 307 310 310 310 311 313 315 316 319 319 318 320 321 323 322 324 326 324 325 326 326 326 328 330 330 331 332 332 334 334 334 334 335 334 335 335 337 334 333 331 331 329 329 330 332 333 328 329 334 331 331 333 330 331 330 329 329 329 332 333 335 333 329 331 331 330 329 329 327 328 330 329 328 331 330 325 325
292 301 301 300 298 298 299 298 298 297 302 303 302 298 291 291 297 302 303 306 307 308 309 311 312 314 316 318 319 318 318 321 322 322 323 324 326 325 325 326 326 327 329 331 331 331 331 332 334 334 335 335 335 335 335 338 337 334 334 333 332 333 331 328 331 330 332 330 330 331 331 332 329 330 329 326 327 329 332 332 332 330 332 328 328 326 327 328 329 330 331 331 331 330 329 327 327
296 301 302 300 299 299 299 299 298 299 297 293 296 301 292 291 297 302 303 302 305 306 308 310 312 316 316 318 317 317 319 320 321 322 323 324 326 326 327 327 327 328 330 332 332 332 333 334 335 335 334 334 334 334 336 338 337 336 336 336 335 332 329 329 327 328 329 329 329 332 331 328 329 327 324 326 325 325 326 328 329 327 325 325 324 326 327 327 328 328 328 329 328 328 329 330 328
301 302 303 303 301 300 300 299 297 297 294 289 295 299 291 291 297 298 301 302 303 304 306 309 311 316 318 315 318 318 320 321 322 323 324 325 326 328 330 330 328 330 331 331 333 333 333 334 333 331 332 333 333 335 334 329 326 327 330 335 333 328 329 327 328 328 328 332 327 326 328 328 328 328 327 327 327 325 327 327 327 329 329 326 325 323 323 325 327 325 326 327 328 327 328 328 327
304 302 300 300 300 299 299 298 297 295 287 291 296 298 295 288 296 298 298 300 304 305 306 309 311 314 316 317 316 317 318 321 323 323 325 328 327 328 331 329 330 330 329 330 331 330 331 331 330 330 331 333 332 331 330 328 327 326 325 329 332 328 328 329 326 326 328 327 325 326 327 327 326 326 327 325 325 325 326 328 327 324 327 328 325 324 325 324 326 327 327 327 326 327 326 326 326
301 300 298 298 297 298 296 295 297 288 286 293 296 298 298 287 293 300 304 306 306 309 310 308 309 315 315 318 319 320 320 322 324 324 324 327 327 328 329 329 329 329 329 329 329 330 330 331 329 329 330 330 330 329 327 326 327 326 326 329 330 330 329 327 325 324 325 324 326 326 326 326 325 327 327 327 326 326 326 324 325 326 327 328 325 327 326 323 323 324 324 324 323 324 324 324 324
300 299 298 292 290 289 286 290 286 286 286 294 297 298 295 293 298 303 306 306 306 311 310 312 313 314 316 318 318 320 320 323 324 325 324 326 325 325 327 328 329 329 328 329 329 329 331 331 330 329 328 328 328 328 327 326 326 326 326 329 331 331 329 328 327 325 326 325 326 324 324 323 324 323 324 324 327 328 328 325 324 324 324 325 327 327 325 323 323 324 323 322 323 322 322 323 321
297 295 295 291 286 285 282 286 288 289 293 297 297 300 292 297 301 306 305 309 311 310 312 314 313 314 316 317 319 320 322 324 324 324 324 325 325 325 327 327 328 330 329 329 329 330 331 331 331 330 328 328 327 328 328 327 327 327 329 331 330 330 330 329 327 326 327 327 326 324 324 323 323 323 324 326 326 324 325 326 326 325 325 325 325 325 323 324 325 319 320 321 320 320 321 321 321
297 299 296 295 292 288 282 285 283 285 288 294 298 294 289 290 299 307 309 311 314 313 313 313 314 314 318 319 320 320 323 325 325 324 324 326 326 326 327 328 328 329 330 330 330 331 332 331 332 331 331 329 328 329 328 328 329 329 332 331 330 330 329 329 328 328 328 326 325 325 325 325 322 322 325 326 324 324 325 326 325 325 325 325 325 325 324 323 322 318 319 320 320 321 320 319 319
299 299 300 295 293 297 288 290 290 289 288 288 293 291 297 298 305 309 311 311 311 312 313 314 313 315 318 319 320 321 322 322 320 319 319 319 322 326 327 328 329 329 329 330 330 331 331 332 332 332 330 328 328 328 328 329 329 330 331 329 330 331 326 328 328 328 329 328 326 326 326 325 324 325 325 324 326 326 325 325 324 324 325 326 326 325 323 321 323 322 321 321 318 320 320 320 319
297 297 292 295 302 299 292 290 296 290 288 286 294 295 299 303 305 307 308 307 307 310 311 311 312 315 317 317 317 318 319 319 319 319 319 320 320 323 326 327 328 330 330 330 330 330 331 331 329 326 329 330 329 328 329 328 331 333 330 329 330 330 328 327 326 329 328 328 329 327 326 325 326 325 325 327 325 325 327 326 325 325 324 323 324 324 324 324 322 320 320 320 319 320 320 319 320
298 293 296 301 304 302 295 286 289 287 284 286 293 289 292 293 289 304 304 305 306 307 308 311 311 313 314 314 314 315 316 318 321 321 320 320 321 322 325 327 328 329 330 331 329 329 330 333 327 325 325 328 330 329 329 330 331 331 331 329 330 332 332 329 329 328 328 327 327 327 327 325 324 325 325 326 327 326 326 326 326 326 326 327 326 325 321 324 324 322 322 322 322 322 321 321 320
299 298 304 295 289 288 294 290 283 283 283 285 289 292 292 294 294 300 301 303 305 306 308 309 309 310 311 312 314 314 316 317 318 318 317 319 319 320 324 327 328 330 330 329 328 328 328 330 327 326 326 325 326 325 328 329 332 331 331 331 331 331 333 330 329 328 327 325 325 327 326 325 325 325 325 327 326 326 325 326 326 326 327 327 326 326 325 322 322 322 324 323 322 319 318 317 319
303 304 299 302 297 293 289 290 292 290 284 284 285 290 287 298 299 301 304 305 306 306 308 308 309 310 312 312 314 314 314 315 318 319 319 319 319 323 325 325 325 327 328 329 330 330 328 328 326 326 328 327 326 324 323 324 330 330 330 331 332 331 330 329 329 328 326 324 326 327 326 326 325 325 327 327 326 325 325 325 325 325 327 326 326 327 325 326 325 324 324 324 323 323 320 319 320
296 296 296 298 299 301 298 298 291 289 286 286 285 284 291 299 305 303 303 307 307 308 308 308 309 311 312 313 313 313 314 314 316 319 319 320 322 323 324 325 325 326 327 328 327 327 327 327 326 329 327 327 327 325 323 325 327 328 329 329 330 331 330 327 326 327 326 326 326 326 326 326 325 326 327 326 325 324 324 324 323 323 323 326 327 327 327 327 326 326 324 324 324 323 317 315 316
298 297 294 296 295 291 287 286 296 293 289 286 285 283 293 302 308 307 306 308 309 310 309 309 310 311 312 313 315 315 316 317 317 319 319 320 322 322 323 324 324 324 324 324 325 325 327 327 327 328 328 327 327 327 327 326 325 327 328 329 330 331 331 328 325 327 325 324 324 324 326 325 325 326 325 325 323 326 325 324 322 322 324 323 326 326 327 327 325 325 325 327 326 325 321 321 323
Wind_Speed
7 8 7 8 7 7 7 7 6 7 7 10 10 11 11 16 17 16 12 8 7 4 11 6 3 3 8 8 15 14 14 11 10 4 5 5 9 16 17 19 19 17 17 13 11 11 13 13 14 14 15 17 17 16 17 17 17 17 17 16 17 16 15 15 14 14 14 13 12 11 11 12 11 10 9 12 12 11 11 11 11 12 13 12 11 11 11 10 11 11 12 11 11 11 11 11 11
8 9 9 8 7 6 6 7 5 6 9 11 12 12 14 15 15 19 10 8 10 9 10 3 0 2 3 8 6 16 17 14 12 12 10 10 15 13 17 16 18 18 14 13 11 11 11 13 13 14 15 16 16 17 18 17 17 17 18 17 16 16 15 14 14 14 13 12 11 11 11 11 11 10 10 11 11 11 10 10 12 11 12 11 11 10 10 10 10 11 11 11 11 11 11 11 11
9 10 8 7 7 8 6 8 8 9 9 11 10 13 14 17 17 6 1 13 10 8 3 4 9 2 6 4 11 12 10 12 13 13 10 13 14 10 15 16 17 17 15 11 11 11 10 12 12 14 15 16 16 16 16 17 17 17 17 17 16 16 15 14 14 15 14 12 11 11 11 11 11 10 9 8 8 9 10 10 11 11 10 10 10 10 9 9 10 10 11 10 11 11 11 11 10
10 10 9 7 6 7 6 6 10 10 10 10 11 13 15 16 12 6 5 10 8 3 4 7 5 7 14 10 10 14 10 8 10 10 8 9 9 13 14 16 16 14 13 11 11 10 10 13 13 14 15 15 16 16 16 17 17 17 17 17 17 16 15 14 15 15 14 13 12 11 11 10 10 9 9 9 9 10 10 9 8 8 9 9 9 9 9 8 9 10 11 10 11 11 11 10 10
9 9 10 8 7 7 7 7 9 9 13 11 11 3 11 15 3 10 5 6 8 7 4 1 4 8 15 9 7 7 9 11 10 9 9 10 15 14 15 15 14 14 13 13 11 10 11 17 13 13 15 15 16 16 17 16 17 17 17 16 16 16 15 15 16 15 14 14 12 11 11 10 10 10 10 10 10 10 10 9 9 9 9 8 8 8 8 5 7 9 10 11 11 12 11 10 10
9 9 8 8 7 6 7 8 9 12 13 13 15 8 12 18 12 6 6 2 3 4 4 6 5 8 6 7 7 7 7 5 4 6 8 11 17 15 15 13 13 13 13 12 11 10 12 15 14 14 15 15 15 16 15 17 17 17 16 16 16 15 15 15 15 14 14 14 13 12 12 11 11 10 11 11 11 10 10 9 9 10 9 9 10 9 8 7 7 8 10 11 12 12 10 10 10
7 7 6 7 8 7 8 9 11 11 13 16 14 15 8 6 8 2 6 8 7 0 6 6 4 12 9 8 11 10 9 9 7 6 6 15 16 13 12 12 12 14 13 11 11 11 15 15 15 15 15 14 15 15 16 16 16 15 16 15 15 15 15 16 14 14 14 13 13 13 12 12 11 11 10 10 10 10 9 9 9 9 10 9 10 9 8 8 7 8 9 11 12 11 9 8 7
10 8 6 7 6 7 10 10 11 11 11 15 13 17 3 4 3 4 4 3 5 9 10 8 5 6 9 8 7 4 11 8 11 11 12 12 13 12 10 12 12 14 14 11 11 11 16 15 15 15 15 15 15 16 16 16 15 15 15 15 14 14 16 16 14 12 12 12 13 13 12 12 12 11 11 10 10 10 10 9 9 9 8 9 9 8 8 8 8 9 12 11 10 10 8 7 6
9 9 7 8 9 7 9 11 11 13 15 15 13 10 11 7 1 6 10 5 2 2 7 9 9 9 9 14 10 8 8 10 12 12 10 11 10 10 7 11 12 11 13 12 12 13 14 13 14 15 15 15 16 15 16 15 15 15 14 14 13 12 12 14 14 13 12 11 11 12 12 12 11 11 11 11 11 10 10 10 9 9 8 9 9 8 9 9 10 11 10 9 8 8 7 6 5
8 8 7 7 7 11 11 10 11 11 14 14 11 9 9 8 6 9 11 7 8 4 7 10 7 8 16 15 10 6 7 9 10 10 10 10 9 8 9 10 11 12 13 13 12 12 12 14 14 15 15 15 15 15 15 15 14 13 13 12 12 11 11 12 12 12 11 11 11 11 11 10 9 12 11 11 12 11 10 11 11 10 10 9 9 9 10 10 10 10 9 7 7 6 6 5 4
7 8 8 9 9 10 11 10 11 11 13 14 8 4 4 2 4 3 5 11 1 8 10 8 6 15 12 12 8 6 10 9 9 9 10 10 10 9 10 10 10 12 14 13 13 12 13 13 15 13 14 14 15 14 13 12 12 12 12 11 11 11 12 10 12 12 12 13 13 11 10 9 9 9 11 12 12 11 11 10 10 10 10 10 9 9 9 9 9 8 8 7 6 5 5 4 4
8 9 8 9 10 10 10 11 12 11 14 14 7 5 2 8 4 8 11 9 10 4 9 11 10 15 12 11 6 7 10 9 8 9 9 10 10 10 10 9 11 13 14 14 13 12 13 13 12 13 12 13 13 13 12 11 10 10 10 10 9 10 10 10 11 12 13 14 12 11 10 9 9 8 9 11 11 10 10 10 10 9 8 9 9 9 8 8 8 7 7 6 4 4 4 4 4
10 8 10 9 9 10 12 13 12 14 12 13 2 7 12 3 5 3 8 9 9 6 12 7 22 13 7 9 9 10 11 9 8 8 9 8 11 9 9 11 12 14 14 14 13 13 13 13 11 11 12 15 12 11 11 11 11 10 9 9 8 9 10 11 11 13 14 13 9 9 10 9 8 8 8 10 10 10 10 10 10 10 9 9 8 8 9 9 7 6 6 6 4 3 3 4 3
10 9 9 10 9 12 12 12 11 9 9 6 4 10 6 4 8 10 9 11 10 9 7 24 16 17 12 10 9 9 9 9 11 10 8 10 9 10 10 11 12 14 14 14 14 13 13 12 11 12 12 11 10 10 11 11 10 10 9 7 9 9 11 11 12 14 15 11 10 8 8 9 9 8 8 8 8 8 8 9 9 10 10 9 9 8 7 7 6 5 5 5 4 3 3 3 3
11 8 9 9 11 10 11 11 11 9 7 5 12 8 6 5 8 5 8 6 7 7 14 14 14 9 7 9 8 10 11 11 11 9 11 10 11 11 13 10 10 12 13 14 14 14 13 12 12 11 11 10 10 7 7 9 11 10 9 8 10 8 9 13 15 15 15 14 12 9 6 9 9 8 7 8 6 6 8 8 8 9 9 9 8 8 7 6 6 5 5 4 4 3 2 2 2
9 9 8 9 11 11 10 12 11 12 5 11 3 3 4 6 6 6 9 11 10 8 9 8 4 6 10 6 11 15 15 13 10 11 9 12 10 11 11 12 10 10 11 11 12 12 12 12 11 11 11 9 7 7 8 8 10 11 9 11 12 10 11 11 15 11 13 13 12 10 9 7 6 3 7 5 8 6 6 6 7 9 8 8 8 8 8 7 7 6 5 3 4 4 3 3 4
9 9 10 9 12 11 10 12 9 8 6 6 5 4 3 9 7 7 6 7 11 6 15 14 13 8 6 6 15 19 15 11 10 12 11 10 9 8 8 7 8 9 8 8 8 10 12 12 12 10 10 9 7 7 6 6 8 9 6 6 8 10 13 16 17 13 10 9 11 11 7 5 3 4 3 4 8 6 5 7 8 9 9 9 9 8 7 7 7 6 5 4 3 3 3 5 5
9 9 9 11 11 13 11 14 9 2 8 6 7 4 3 8 9 6 4 10 2 15 13 13 18 15 12 14 18 17 16 13 10 12 12 10 9 9 9 9 9 8 9 7 8 8 10 11 10 10 7 6 8 7 5 6 6 6 6 6 6 9 13 16 12 8 10 7 10 8 4 3 3 1 1 4 3 7 8 8 8 9 9 10 9 8 7 6 5 5 4 4 3 4 6 3 4
10 9 10 12 11 12 15 12 6 5 8 7 9 4 4 5 3 7 6 7 5 7 12 13 14 12 14 15 15 15 14 11 11 11 13 13 11 11 9 9 9 10 9 8 8 9 8 9 10 8 9 10 10 8 6 7 7 5 7 6 6 7 9 9 6 8 6 6 7 5 4 4 3 3 0 5 4 7 8 9 9 9 9 9 8 7 6 5 4 4 4 5 5 6 5 4 5
12 11 11 12 14 16 17 11 6 7 2 6 7 6 8 7 6 8 7 9 10 8 11 10 9 11 10 10 12 12 12 13 11 11 13 13 11 11 10 10 9 11 11 9 7 6 9 8 9 2 8 10 10 7 7 7 7 4 4 5 7 5 7 6 5 4 6 7 7 5 3 4 2 1 2 7 7 5 5 6 8 9 8 9 9 5 5 4 4 5 6 6 4 4 5 6 7
9 12 12 11 13 15 16 12 9 5 6 5 6 6 9 3 7 7 5 2 7 7 13 10 11 10 12 12 12 12 13 12 13 11 11 13 11 8 9 9 10 8 6 9 8 6 6 8 10 9 7 8 8 8 7 8 7 6 6 6 6 6 5 5 4 4 6 6 5 4 5 2 4 2 3 2 3 4 4 4 4 3 3 3 7 3 4 3 4 4 3 4 4 5 6 7 5
9 13 15 17 16 16 13 8 11 8 5 6 4 5 5 8 2 9 6 6 5 5 10 14 13 14 13 13 12 12 13 13 13 13 12 9 10 8 7 8 7 7 7 7 9 8 9 8 7 5 5 8 6 5 6 8 8 5 6 5 6 5 7 6 4 4 4 5 4 5 5 3 3 3 3 2 2 3 4 3 4 4 3 3 5 2 3 3 3 3 3 3 4 6 6 4 4
13 12 14 17 19 18 12 10 4 6 4 4 10 6 12 3 7 7 6 11 6 8 8 14 11 12 14 13 11 13 14 13 12 12 13 10 9 8 8 8 9 8 7 7 7 8 9 9 9 8 7 6 8 4 5 6 5 5 5 5 5 3 5 6 3 4 3 4 5 5 5 5 2 2 1 1 1 1 0 1 1 1 1 1 3 1 1 1 2 6 9 9 9 11 12 9 6
13 12 13 16 17 19 12 13 7 4 9 10 10 15 4 3 12 4 10 7 5 13 14 18 13 10 12 13 13 11 11 12 12 11 10 9 8 8 8 8 9 9 8 9 8 8 9 8 6 9 7 7 4 5 5 7 6 4 3 5 4 6 7 5 5 3 2 4 4 4 4 5 4 2 2 1 1 0 0 1 1 1 1 1 1 2 2 1 6 2 5 4 2 1 3 8 11
15 15 15 15 14 14 15 11 8 3 6 9 9 11 3 6 11 6 10 6 18 20 16 14 16 16 13 13 13 11 11 11 10 9 6 7 6 7 8 6 7 8 10 9 8 9 10 9 9 8 4 12 9 6 4 5 7 7 5 5 4 7 5 5 5 3 3 3 5 3 2 2 5 1 1 3 2 1 1 0 1 1 2 3 3 2 1 1 1 1 1 1 1 2 4 3 3
14 16 14 15 16 13 7 9 12 10 6 7 9 10 7 10 11 13 7 7 12 16 20 18 15 15 13 13 11 11 10 10 9 8 7 7 6 8 9 9 9 9 9 10 8 7 10 8 11 12 9 9 8 7 4 6 7 7 6 6 5 6 5 6 6 3 4 2 4 1 1 2 3 6 4 3 3 2 1 0 2 1 1 2 1 1 3 1 1 0 1 1 1 2 1 2 1
9 16 18 17 16 15 11 12 10 10 11 9 10 10 11 11 10 6 9 7 14 10 19 16 15 12 10 11 10 10 11 11 10 7 7 7 9 9 9 9 10 10 10 11 11 10 11 11 8 10 9 8 6 5 4 4 5 6 5 4 4 7 6 6 5 2 1 3 4 1 1 4 3 6 5 4 3 3 1 2 1 0 1 1 0 0 3 1 1 1 1 1 1 2 2 2 1
18 14 8 14 17 18 13 11 12 10 12 13 10 12 11 13 12 9 9 13 12 10 15 17 15 12 9 9 10 10 9 9 10 9 11 9 9 10 9 7 8 10 10 9 7 9 13 13 9 6 7 6 5 6 3 4 5 4 4 4 5 7 7 5 4 4 1 4 5 3 4 1 2 5 2 1 3 2 3 3 0 1 1 1 1 0 1 1 0 1 1 2 2 2 1 3 2
15 15 12 13 13 15 17 13 11 13 11 11 13 13 13 12 14 13 15 12 14 11 14 17 14 11 10 10 8 7 9 10 9 9 9 8 9 8 9 8 7 8 7 7 9 11 15 12 8 8 6 4 4 5 4 5 4 2 3 5 5 6 6 4 3 3 2 2 6 10 8 7 6 5 7 6 6 2 2 2 2 2 1 1 0 1 1 1 1 1 1 3 1 0 0 0 3
14 12 12 12 12 14 17 15 14 12 10 11 10 10 9 12 16 13 16 17 14 12 12 14 12 11 10 9 8 9 7 9 10 10 9 9 10 9 9 9 8 6 7 6 10 13 11 9 7 6 5 6 5 7 8 6 6 1 4 2 5 7 5 5 5 4 6 8 9 8 6 6 4 6 6 5 4 4 3 2 1 1 0 0 1 0 0 1 0 0 1 1 1 1 1 1 2
12 12 11 11 10 12 14 13 14 16 10 12 10 10 9 13 16 16 16 9 9 10 11 10 11 11 11 11 10 9 10 10 11 11 10 10 9 8 9 8 8 8 8 8 14 12 11 11 9 8 9 9 6 6 5 5 5 5 3 4 1 6 5 6 5 8 8 6 5 5 5 4 5 4 5 5 5 4 4 4 2 1 1 1 1 1 1 1 2 0 1 1 1 1 0 1 1
9 10 12 10 12 11 15 17 19 17 13 15 14 11 11 11 15 18 17 13 14 13 10 10 11 13 11 9 10 10 9 9 9 11 10 11 9 7 8 7 12 14 12 11 11 8 9 9 11 9 9 9 7 7 5 5 7 4 4 3 3 1 5 7 9 7 6 5 5 4 4 3 5 5 4 4 4 3 4 4 3 3 3 2 3 1 2 1 0 0 1 1 1 1 1 2 1
10 11 10 12 13 12 13 17 19 21 15 17 17 10 10 13 14 16 20 18 18 14 12 12 12 16 14 11 9 9 9 10 12 14 12 10 9 6 5 14 13 14 11 11 8 5 7 9 11 12 11 10 10 10 8 7 6 5 1 2 5 2 7 4 3 3 4 5 4 5 5 4 3 5 5 4 2 3 4 4 3 4 3 2 2 1 2 1 0 1 1 2 2 1 1 2 1
9 11 11 12 14 12 13 15 17 20 18 14 17 12 12 12 11 14 19 21 17 14 13 13 11 9 13 11 11 11 11 10 14 14 13 9 6 9 16 15 14 11 11 13 8 5 7 7 7 7 8 7 7 6 5 6 6 5 3 1 8 8 6 3 2 3 5 3 3 5 5 5 4 6 4 4 3 4 3 2 3 2 2 1 1 1 1 1 2 1 1 1 1 2 2 1 1
9 9 10 12 15 17 15 14 15 18 20 15 16 15 15 17 14 15 14 18 16 14 13 13 12 9 14 12 11 12 11 12 13 12 11 10 16 17 12 12 9 10 11 15 8 4 4 7 7 9 9 8 7 7 6 6 6 6 5 7 10 7 4 4 5 5 5 4 5 5 5 4 3 5 6 4 4 3 3 4 2 2 1 1 0 0 1 0 2 1 0 3 1 1 1 2 2
13 9 11 12 12 13 14 17 12 20 18 16 15 14 15 16 15 10 2 7 11 13 11 9 12 11 14 11 9 9 10 14 12 10 5 13 14 14 13 8 11 10 12 13 10 5 6 6 8 8 9 7 6 5 5 6 5 4 6 11 5 3 3 4 4 4 5 6 6 5 6 2 4 3 5 4 2 3 3 4 3 2 2 2 2 3 2 1 0 1 0 1 2 1 0 2 0
14 16 15 15 13 14 15 17 11 19 15 15 14 15 15 13 15 12 15 13 11 10 10 8 10 12 13 12 10 10 10 10 9 9 15 15 13 10 11 8 10 12 13 13 11 8 4 5 7 8 7 7 5 4 3 5 3 4 5 3 4 4 4 2 5 5 5 4 5 8 6 5 4 5 6 4 3 5 3 3 2 2 2 2 2 0 1 1 1 1 2 2 1 0 0 0 1
12 14 18 12 15 12 14 14 11 17 6 11 13 12 13 13 14 14 14 14 14 11 9 8 11 13 11 12 12 12 8 2 18 13 13 11 11 13 9 8 10 13 10 10 12 10 6 6 7 7 5 5 6 4 4 3 2 1 2 3 4 5 4 4 6 4 5 5 6 5 5 6 7 7 5 5 5 7 5 4 3 3 2 2 2 1 1 2 2 2 3 2 1 1 1 1 1
10 11 12 10 9 13 12 13 13 11 10 6 12 13 12 14 14 11 12 15 11 10 10 10 11 12 11 11 11 8 7 16 12 13 6 8 13 14 8 8 7 10 10 7 10 13 10 8 9 7 5 4 4 3 2 2 1 3 2 4 2 4 4 5 5 5 5 6 5 5 3 3 5 5 5 5 4 3 4 4 4 4 4 3 3 2 1 2 0 0 2 1 2 2 2 2 0
8 9 9 8 9 9 9 2 7 9 3 4 7 9 8 12 10 8 13 12 12 12 12 14 9 10 12 10 7 7 14 14 13 11 10 9 11 13 8 7 9 10 8 8 8 11 8 7 9 9 7 6 4 3 2 1 1 6 1 5 6 6 6 6 5 4 4 5 5 4 3 2 3 3 6 7 5 3 2 3 4 3 2 2 2 1 1 2 4 2 2 4 2 3 1 1 2
9 11 11 10 10 10 9 8 9 10 11 6 6 9 10 11 9 11 14 7 8 10 10 12 10 12 8 5 8 18 17 13 8 7 3 12 14 12 11 10 11 10 10 8 7 7 7 10 9 9 7 7 5 5 4 3 2 1 7 8 6 6 4 4 4 4 4 5 4 3 2 3 4 4 5 6 5 4 4 3 3 4 3 2 1 4 3 4 3 2 4 2 3 1 3 0 1
9 12 14 14 15 14 11 7 6 4 5 8 8 9 10 8 13 16 10 6 10 10 10 11 13 12 11 8 24 15 9 9 10 11 11 11 12 10 9 12 13 10 11 10 8 7 8 11 12 9 7 6 6 5 4 4 1 4 6 6 5 2 3 3 4 5 5 4 4 3 4 3 2 3 5 6 5 4 4 2 2 4 3 3 2 2 2 3 4 4 4 3 5 4 1 2 1
10 9 14 16 20 17 16 6 9 6 7 4 10 10 5 9 13 14 9 11 12 11 10 12 12 11 9 9 14 14 9 5 2 5 11 12 13 11 7 7 13 11 10 12 11 11 11 11 11 9 6 4 4 3 5 1 1 5 6 5 2 3 3 3 3 4 6 5 3 5 4 3 4 4 4 4 4 3 3 2 1 2 5 3 3 4 3 5 5 3 3 4 4 3 3 4 1
10 10 11 15 18 16 13 13 13 5 7 5 7 10 9 8 14 12 12 13 13 13 10 10 9 10 6 16 15 12 4 5 7 6 9 14 13 12 9 7 10 11 12 12 12 11 12 11 9 8 6 5 4 5 3 0 3 5 4 3 3 3 3 4 3 4 4 5 5 4 3 3 4 4 4 4 3 3 2 2 2 4 1 6 3 5 5 5 5 4 3 3 4 4 4 5 3
9 13 16 15 15 14 12 10 6 6 5 9 8 11 9 9 5 10 13 15 14 13 13 11 9 6 21 17 16 8 6 7 4 5 13 14 15 14 10 8 10 12 11 10 9 10 11 11 10 8 8 7 6 5 3 1 3 4 3 2 2 4 5 3 3 3 4 5 4 3 3 4 4 5 4 4 4 4 3 3 3 3 4 4 6 5 4 5 4 3 3 2 4 3 3 3 3
13 15 9 10 8 12 12 8 8 6 6 7 8 6 8 9 5 9 13 13 13 13 14 14 11 18 16 16 9 10 7 5 8 6 12 15 14 14 11 11 11 9 7 4 6 7 8 10 12 12 11 9 7 6 5 7 8 7 4 2 3 5 3 3 3 4 4 3 5 5 5 4 4 4 4 4 4 4 4 4 3 3 3 3 4 5 5 4 3 4 4 3 3 4 3 3 3
11 12 10 10 11 9 10 9 7 2 6 8 11 8 10 9 8 6 7 9 9 9 11 9 10 14 17 17 14 11 9 6 6 8 11 15 15 15 11 12 12 8 5 6 5 5 6 6 6 9 10 9 8 7 7 7 5 7 4 5 3 4 4 3 4 4 4 4 4 4 4 4 4 5 4 5 5 4 4 3 3 3 3 4 4 4 3 4 3 3 4 4 4 4 5 5 5
11 4 8 8 8 8 8 8 7 6 6 9 14 13 12 9 4 3 4 6 8 9 6 9 11 19 14 13 10 9 11 9 9 9 11 16 16 15 12 13 14 11 9 9 6 6 5 6 7 7 7 8 8 7 8 6 4 6 4 6 4 4 4 4 5 5 5 5 4 4 5 5 4 4 3 4 4 3 3 3 4 4 3 3 4 3 3 4 5 5 5 5 5 5 5 5 4
10 9 8 8 5 4 6 7 8 8 6 8 12 14 11 12 1 6 7 8 5 12 8 7 7 13 14 13 11 10 10 11 11 10 12 14 15 16 15 12 12 11 10 11 11 9 7 9 10 8 7 7 7 6 8 8 6 6 6 6 5 4 4 4 4 5 5 5 4 5 5 5 5 5 4 3 3 3 3 3 4 4 4 4 3 3 3 5 4 4 4 5 4 4 4 4 5
10 10 8 8 7 6 6 8 4 7 10 10 9 1 4 2 6 7 8 6 9 7 7 8 10 10 13 14 10 10 9 9 9 10 11 12 13 14 14 15 12 12 11 11 11 10 9 10 11 11 8 8 8 7 7 7 6 5 6 5 5 4 4 5 4 4 4 4 5 5 5 5 5 5 4 3 3 4 3 3 3 3 3 3 3 3 4 4 4 5 4 4 4 4 5 4 4
11 9 10 7 7 6 5 6 6 7 7 7 10 5 3 7 2 11 7 10 9 12 14 13 9 9 11 14 12 11 10 8 7 6 5 8 14 13 12 13 12 11 13 11 12 12 10 11 11 13 11 10 9 8 7 7 5 4 4 7 6 4 5 5 5 4 4 4 4 4 5 5 6 5 4 4 5 4 4 3 3 3 3 3 3 3 3 4 4 5 4 5 4 3 5 5 5
11 10 10 9 6 4 7 1 4 3 3 3 4 2 3 5 5 8 10 8 10 11 15 13 12 10 10 10 10 7 6 7 6 5 5 5 10 6 12 12 10 11 13 11 12 11 10 11 12 12 11 9 8 8 6 6 7 7 5 8 7 5 6 5 5 5 4 5 4 4 5 5 5 5 5 4 3 3 3 4 3 3 3 2 3 3 3 3 3 4 4 4 4 4 5 5 4
4 9 11 9 6 10 1 3 3 4 2 5 4 3 6 9 4 5 7 8 10 12 14 13 11 10 9 8 7 4 3 6 6 4 4 7 4 9 8 12 11 11 10 13 13 12 12 12 11 8 8 11 12 9 7 8 7 6 8 8 6 6 6 5 5 4 5 5 4 5 5 5 6 5 5 3 4 4 3 3 3 3 3 4 3 3 3 3 4 4 4 4 4 4 4 4 4
5 6 6 6 9 8 4 3 1 4 6 4 6 5 5 6 3 10 10 10 10 11 8 8 10 8 9 7 7 5 4 5 3 7 9 7 4 7 4 7 9 10 9 9 11 8 9 10 12 9 13 13 11 9 9 5 6 5 6 8 6 5 4 6 5 5 5 5 4 5 5 6 5 5 3 3 3 3 3 4 3 3 3 2 2 2 3 3 3 4 3 3 3 3 4 3 4
11 7 6 6 2 5 4 1 3 3 4 4 6 10 9 11 5 12 13 11 11 11 7 7 9 9 9 6 7 7 8 6 4 5 8 8 9 11 9 7 8 7 7 7 8 7 5 6 11 10 10 8 8 6 6 2 2 5 4 4 5 3 3 5 6 5 4 5 4 4 5 6 5 4 4 3 3 3 4 3 3 3 2 3 3 2 2 3 3 3 2 3 4 4 4 4 3
12 4 5 6 6 5 4 1 4 5 7 4 5 10 1 10 6 10 16 16 15 13 9 7 7 8 6 5 6 7 7 8 2 5 9 11 12 12 11 10 9 7 6 5 7 7 9 6 7 6 6 8 11 8 5 5 3 5 6 4 4 3 3 4 6 6 5 6 4 4 5 6 5 3 3 3 3 3 3 4 3 3 2 2 1 0 2 2 2 2 3 2 2 3 3 3 2
9 9 8 7 4 2 3 2 6 6 4 5 3 4 6 5 8 3 11 17 17 17 14 13 10 7 6 6 5 5 7 8 9 9 9 13 13 11 12 11 10 9 7 5 7 7 8 8 8 7 9 9 11 13 14 7 4 7 8 6 5 5 5 4 6 6 5 5 4 5 4 5 4 3 3 3 3 3 3 3 4 4 3 3 2 0 1 0 0 2 3 1 1 2 5 4 2
9 6 8 8 6 7 8 8 7 7 4 2 3 0 2 6 4 8 12 14 14 13 14 14 15 15 13 11 11 9 13 12 11 9 9 10 10 11 12 12 11 10 10 9 9 8 9 9 9 9 8 9 9 9 9 10 7 5 7 7 6 5 4 5 6 4 5 5 5 5 4 4 3 3 4 3 3 3 3 3 4 4 3 4 3 2 1 1 1 3 2 1 1 1 4 3 0
Wind_Direction
249 235 242 232 234 248 251 200 245 197 237 243 256 234 242 236 256 254 245 117 255 329 247 245 184 121 278 7 76 64 43 41 13 354 112 121 124 109 105 111 116 119 121 124 125 126 126 126 133 135 139 140 137 134 130 128 128 127 125 123 123 122 121 121 122 122 122 122 123 125 124 118 113 111 116 121 119 119 118 119 119 115 112 109 112 111 112 113 108 105 99 99 100 98 94 91 88
227 232 226 236 234 238 218 208 251 239 204 243 241 254 250 247 228 241 200 235 94 30 22 32 71 294 32 283 107 99 56 53 62 85 102 123 105 115 115 116 120 121 121 125 129 129 130 135 134 139 142 141 138 135 132 129 129 129 128 124 121 122 122 122 122 122 122 123 124 126 123 118 116 114 116 121 125 124 121 121 120 121 116 116 115 119 115 111 114 108 105 103 99 98 101 94 89
229 216 218 220 236 234 288 203 236 248 235 227 239 233 243 254 251 245 350 248 93 124 114 85 11 69 206 250 44 51 64 61 88 98 98 122 123 125 122 119 116 118 123 127 130 127 133 143 139 139 141 139 138 136 132 129 129 131 129 124 122 123 126 125 124 127 127 123 125 125 121 120 117 119 116 116 108 118 128 127 129 127 121 117 120 119 119 119 116 114 108 108 102 103 103 96 92
286 291 261 191 223 208 233 211 237 248 246 244 246 219 227 235 234 214 46 44 67 113 186 112 237 88 24 33 90 79 77 80 83 109 128 124 115 125 115 116 120 125 127 130 132 132 134 142 138 136 134 135 137 137 134 135 133 133 130 126 126 129 129 129 131 131 128 129 128 126 123 122 120 114 113 101 90 101 101 101 105 115 113 116 121 123 123 122 125 119 114 110 105 105 101 98 93
257 254 253 224 253 207 226 236 233 232 248 251 254 275 228 212 25 84 83 88 102 230 129 211 131 82 73 55 10 65 83 88 48 76 101 121 112 122 124 125 127 129 131 134 132 130 132 140 132 131 132 136 138 138 137 134 134 134 132 130 130 131 133 133 135 133 133 133 133 129 125 126 124 118 108 96 89 87 87 96 106 105 107 111 112 114 114 119 127 122 120 114 112 106 103 106 103
245 252 237 249 234 340 279 240 232 235 245 252 264 319 10 35 75 67 100 208 281 227 281 216 200 167 96 57 40 74 2 70 143 90 112 105 117 127 125 134 130 133 133 132 129 127 139 132 130 131 134 137 138 135 133 135 134 135 134 133 133 134 135 136 136 136 138 137 134 131 132 132 134 122 109 108 106 98 95 92 104 113 115 115 112 117 123 119 117 119 120 118 113 109 115 112 102
219 226 222 215 263 262 255 248 244 239 235 245 260 274 358 83 65 87 123 140 239 276 197 263 186 104 104 114 81 42 36 86 114 124 125 120 125 132 136 130 133 131 130 131 131 128 136 129 131 133 134 129 127 128 128 130 131 133 133 135 136 137 138 140 139 141 142 139 137 135 135 136 134 121 116 118 114 110 103 99 98 109 122 124 125 126 130 127 123 124 121 115 113 119 121 118 111
240 253 179 216 232 208 233 250 254 243 240 238 248 265 163 114 30 88 268 324 160 228 161 241 126 137 86 87 93 47 57 69 100 115 112 133 125 120 126 134 131 136 136 132 128 121 131 132 132 131 129 130 127 128 128 130 130 135 134 135 136 139 142 143 143 143 141 140 136 135 136 136 135 127 125 122 117 111 111 107 107 104 114 121 126 128 125 126 121 119 119 120 123 123 129 124 115
225 243 264 232 241 234 239 236 246 248 263 258 254 127 102 83 39 311 312 74 288 344 205 206 162 176 93 82 81 81 64 82 100 110 132 122 117 120 126 132 134 131 129 122 116 128 141 135 132 131 132 133 132 129 132 133 136 137 135 138 140 141 143 146 147 144 140 133 132 134 136 137 131 128 126 119 116 114 112 113 118 124 115 120 124 126 121 124 124 122 125 128 131 130 135 133 125
231 229 211 238 244 242 241 239 240 247 252 241 237 258 48 62 193 225 262 257 265 179 244 184 172 125 121 106 105 89 97 102 116 132 122 124 115 115 124 115 123 124 113 117 127 137 143 138 133 132 132 134 134 135 137 138 140 139 138 140 139 140 144 149 146 140 128 122 118 121 119 113 119 128 122 119 118 118 119 120 123 127 126 121 125 124 126 124 130 131 132 134 138 142 140 134 128
234 202 251 244 233 248 246 248 237 237 248 256 211 118 167 128 266 268 226 273 315 233 262 160 161 110 106 87 84 109 118 124 134 134 137 134 124 124 123 127 124 116 124 131 136 136 141 143 132 129 131 134 136 136 137 138 138 138 137 137 138 141 147 143 140 130 121 121 118 115 117 116 108 118 127 127 126 124 122 120 124 129 130 125 128 126 130 130 130 136 134 135 138 139 144 137 133
235 222 202 238 245 246 245 249 249 234 232 241 212 60 233 216 112 240 240 225 245 242 250 189 129 128 109 120 128 135 123 133 143 139 138 126 125 124 124 122 124 127 132 135 134 134 142 141 142 135 131 133 133 132 135 134 129 130 131 136 139 138 137 132 129 126 125 120 119 123 126 124 114 110 127 127 126 125 122 122 119 119 118 128 132 134 132 134 134 119 117 127 136 136 142 138 126
243 240 218 235 247 241 255 262 262 258 247 212 43 216 85 81 261 283 265 230 234 253 251 157 122 122 129 117 123 136 132 139 142 139 134 137 126 134 129 128 132 135 135 134 133 139 139 144 142 146 139 132 125 130 131 126 122 122 129 132 135 133 131 134 130 134 120 105 102 128 135 125 121 117 126 129 129 129 125 123 124 123 122 123 129 134 117 95 106 116 119 120 121 127 128 118 118
237 241 253 244 244 262 262 263 262 265 264 70 144 99 143 178 211 245 234 228 210 220 59 103 120 105 102 114 142 145 143 156 144 149 136 125 133 137 134 132 139 139 139 137 141 141 143 146 145 149 140 137 133 131 129 127 124 129 130 115 127 137 138 136 132 120 113 131 155 158 132 130 128 124 130 132 135 120 120 126 129 129 130 128 128 133 133 128 120 111 111 112 116 123 127 124 123
242 239 257 269 270 260 246 258 261 260 272 243 108 144 115 175 268 287 290 282 239 178 96 83 115 140 166 150 161 164 155 155 150 159 135 141 140 138 137 137 143 140 140 142 144 147 149 145 146 140 143 141 132 143 138 130 133 133 136 130 125 134 143 130 125 119 130 150 163 139 124 128 117 118 125 133 121 118 127 132 131 129 130 133 131 132 135 136 141 135 118 121 123 125 152 156 153
237 253 251 259 254 257 259 254 253 282 332 68 84 218 155 262 138 256 215 244 246 123 122 113 67 42 138 159 161 146 153 149 159 141 142 140 141 140 141 140 138 146 137 136 146 148 146 145 141 142 140 134 137 133 134 130 139 136 137 131 145 143 134 127 96 112 160 169 147 136 141 99 99 138 130 131 140 128 145 140 131 131 130 133 129 130 136 142 145 142 143 155 169 176 190 206 204
231 250 259 252 258 256 252 255 256 237 222 142 80 261 208 233 114 243 314 234 241 75 38 64 58 97 155 107 130 138 144 139 153 146 138 142 144 149 141 133 139 138 122 123 131 147 146 144 141 138 130 127 142 125 127 121 107 108 111 130 154 147 132 120 123 156 173 153 139 146 100 85 178 172 141 168 151 151 124 126 141 134 135 133 134 136 142 149 153 154 162 180 215 222 218 241 241
229 228 240 248 254 249 248 253 271 352 266 66 5 28 253 274 142 230 176 257 55 82 90 77 64 52 50 97 120 134 140 143 159 161 150 151 156 149 151 144 143 146 136 133 134 145 154 151 136 127 117 147 136 133 149 124 119 141 157 173 176 155 140 128 141 164 160 145 138 121 111 150 210 196 156 155 190 147 143 142 143 140 140 141 140 147 154 163 167 173 185 210 242 256 262 262 237
233 229 233 243 240 251 260 273 263 240 333 88 41 17 266 292 55 95 231 231 203 164 93 87 80 79 86 105 122 135 139 148 170 170 159 161 159 162 153 157 156 150 145 143 156 157 150 149 130 112 149 152 139 147 140 129 150 169 160 164 152 148 138 137 155 161 133 131 128 101 137 203 183 175 258 172 193 162 143 146 147 148 145 146 147 155 167 173 187 200 219 234 248 261 265 259 258
221 250 232 235 250 254 249 260 32 14 9 39 232 173 232 92 240 108 246 227 209 182 112 109 104 109 109 117 132 139 150 161 181 176 170 167 167 163 164 157 154 164 158 151 156 157 159 140 73 90 162 148 147 138 143 144 160 152 156 155 137 162 154 148 169 150 128 135 132 131 138 220 101 359 263 189 163 128 131 138 154 151 153 151 157 159 173 195 211 226 237 250 257 254 245 245 244
196 227 245 246 233 251 261 271 272 304 348 12 294 85 256 163 252 169 173 224 59 71 123 130 140 138 139 140 139 159 164 173 182 186 179 173 166 168 166 155 161 161 152 130 143 165 157 111 129 191 155 148 136 142 142 155 154 163 165 154 153 165 140 142 175 132 130 141 135 128 140 210 117 213 236 180 153 155 149 158 156 162 161 165 163 177 165 191 202 230 228 235 253 245 242 241 254
233 226 233 250 255 249 255 352 4 261 196 263 310 273 275 62 355 283 147 221 219 156 143 142 146 151 148 152 159 170 173 176 180 187 181 177 160 163 154 145 139 147 120 145 156 155 121 91 122 143 143 153 144 141 145 155 152 151 151 159 155 172 150 143 151 106 121 141 128 106 123 140 153 214 189 170 153 202 166 160 180 175 175 180 170 230 172 190 196 250 256 248 242 250 259 312 308
234 240 242 241 255 269 298 306 216 320 21 247 265 265 283 112 281 245 211 192 131 150 135 124 138 148 147 143 166 180 177 179 185 186 184 178 167 160 147 154 145 141 147 146 143 144 115 121 146 153 155 144 122 154 141 144 135 149 147 156 142 134 111 113 127 129 156 150 134 124 136 147 197 189 141 155 130 259 62 187 102 11 133 80 156 236 308 3 7 23 18 352 346 336 331 318 293
236 242 238 240 248 253 266 265 45 111 260 267 249 259 317 291 260 107 272 117 139 119 110 122 128 156 155 157 169 183 184 183 192 190 185 170 176 152 148 150 153 150 151 141 129 109 109 117 136 155 136 97 112 179 153 131 145 140 149 127 171 132 119 140 122 120 181 197 141 133 139 140 160 149 146 173 168 92 356 15 347 175 114 143 43 43 13 51 71 166 186 206 232 290 312 354 349
233 236 246 262 248 249 249 258 247 229 223 242 272 265 252 247 256 227 231 161 110 126 135 141 149 153 162 158 169 177 185 195 198 196 170 156 168 141 137 141 144 150 130 135 120 128 133 141 153 134 124 128 166 191 157 136 133 159 145 144 144 144 117 116 113 142 199 213 80 111 154 115 118 39 299 144 70 46 132 233 9 335 61 44 40 45 319 51 138 275 241 259 134 30 10 355 5
231 249 240 244 260 269 262 229 239 241 251 220 243 249 260 250 254 264 280 143 141 150 149 151 154 153 160 160 167 174 191 194 202 186 175 160 153 156 158 152 156 152 144 138 138 138 128 140 142 129 145 150 159 163 151 137 140 140 150 149 140 122 95 104 119 178 228 77 81 194 142 115 155 152 223 106 141 159 110 80 97 48 57 91 96 335 63 104 138 197 343 357 68 118 61 307 352
237 232 242 248 252 248 240 256 253 242 243 238 231 236 234 240 255 237 233 237 151 168 146 147 149 149 157 159 166 170 189 201 201 184 176 182 157 168 174 161 164 144 144 151 162 158 131 132 113 125 135 144 147 120 129 133 125 130 140 139 112 109 101 110 124 178 193 102 97 68 278 169 214 145 152 144 137 96 248 30 339 85 54 52 115 31 120 154 131 121 146 58 55 37 23 299 233
254 264 274 240 244 258 254 223 238 241 229 228 240 240 234 236 228 249 205 235 149 180 149 148 147 144 156 155 166 175 191 197 200 191 185 184 170 180 172 184 169 147 148 171 157 128 124 121 134 117 110 132 117 119 135 132 125 138 142 115 89 104 124 128 143 156 82 72 80 328 272 259 154 84 35 36 95 197 150 151 180 44 67 136 84 324 47 51 101 183 110 99 67 82 338 309 318
253 243 232 252 253 243 240 238 224 220 240 203 223 244 233 224 237 209 236 232 156 191 172 144 154 154 155 160 162 186 194 192 195 196 196 189 180 187 175 174 173 153 145 158 129 110 112 124 124 121 125 96 98 135 156 121 99 123 110 98 120 103 114 110 91 134 110 100 179 174 213 192 150 148 178 168 144 220 36 65 69 65 25 66 33 82 62 335 32 283 114 63 123 127 145 304 349
257 258 262 258 255 254 239 223 234 230 225 222 188 231 228 228 233 215 228 239 181 192 204 171 155 150 154 162 178 194 187 193 197 203 195 191 196 183 178 168 178 149 126 131 97 99 108 109 107 94 88 62 44 43 37 33 34 316 73 65 112 117 126 136 164 183 175 191 169 183 184 162 169 152 137 111 140 151 167 144 132 146 166 58 59 257 179 175 200 100 92 158 44 101 74 16 336
240 239 239 247 255 245 235 227 210 232 209 220 188 230 230 225 227 215 228 220 149 194 200 181 170 162 153 157 183 192 195 202 202 203 194 195 193 187 187 159 161 99 90 70 91 99 95 107 113 114 113 132 141 104 106 106 87 356 23 27 28 110 130 159 169 190 182 165 157 147 171 153 141 123 110 140 154 157 131 126 142 140 125 136 212 166 236 174 223 214 80 283 130 149 131 87 51
236 239 231 234 243 245 248 213 212 215 209 208 210 229 243 231 216 212 213 199 186 200 199 196 186 166 158 172 184 185 196 202 207 203 203 200 190 184 184 129 64 59 70 86 88 96 95 95 121 125 131 127 115 109 104 97 80 44 2 350 332 81 175 197 195 187 152 136 128 133 129 125 125 126 124 117 118 130 120 131 160 172 164 151 227 200 237 205 157 136 17 303 307 7 190 111 87
225 233 243 237 227 243 250 236 203 205 220 194 213 230 213 244 254 223 207 203 191 206 198 201 212 148 162 182 182 188 198 207 209 209 204 202 196 183 78 71 79 76 82 83 74 78 107 113 122 132 132 129 128 123 123 118 103 98 53 318 323 291 264 201 168 109 100 110 139 130 121 114 119 112 117 117 109 105 136 160 161 164 173 166 153 184 217 195 175 120 129 343 349 315 345 99 86
222 211 238 241 242 225 236 245 206 188 213 201 191 229 239 247 236 308 229 189 187 190 206 204 201 170 158 170 192 186 199 207 210 211 203 196 187 69 70 71 92 111 95 107 116 148 128 123 115 108 101 99 93 94 100 104 96 111 84 57 228 214 188 222 65 102 122 141 131 111 119 129 136 116 123 135 126 128 117 137 157 154 133 175 163 147 279 201 107 118 143 128 35 12 10 10 84
225 206 220 232 242 245 241 233 196 189 191 224 179 213 236 246 249 309 155 162 173 189 212 197 190 163 145 177 196 196 192 204 215 214 201 184 73 66 61 76 78 88 90 104 106 175 149 123 115 107 97 97 107 120 125 118 119 97 91 250 210 191 145 119 135 135 113 112 100 105 105 102 115 123 139 146 130 124 146 139 145 139 127 123 118 222 233 318 127 144 180 103 69 72 340 339 73
222 235 219 226 236 228 235 248 187 181 179 211 209 199 220 238 256 191 63 140 209 190 209 195 180 164 164 186 197 200 211 202 199 203 144 67 87 94 108 107 92 94 113 125 149 158 134 122 112 107 113 115 115 133 128 112 115 144 180 203 204 125 107 130 151 140 134 113 111 113 109 109 106 118 113 94 118 159 136 132 134 157 146 180 193 207 180 201 195 161 101 82 141 128 91 300 29
284 294 284 224 227 241 234 241 199 177 190 197 222 210 210 229 238 219 173 180 219 229 212 198 175 203 199 185 199 209 215 217 184 64 73 82 64 96 95 105 103 109 115 132 137 129 121 106 102 101 119 128 136 130 139 137 149 189 203 150 125 99 117 120 66 54 63 70 115 120 118 121 98 84 96 126 152 97 66 101 132 142 171 218 216 280 116 159 178 180 114 73 31 117 168 166 17
286 306 291 243 208 241 233 225 212 164 211 191 201 224 223 225 214 234 174 195 203 210 215 221 204 208 207 190 200 208 206 124 57 58 63 82 111 101 119 116 137 121 129 137 130 129 131 103 105 106 115 127 143 152 139 130 165 208 161 146 124 124 146 105 84 84 86 85 70 79 116 124 127 134 154 156 138 133 151 147 153 182 190 191 202 171 156 192 203 205 137 117 88 2 41 23 144
281 264 278 283 237 222 237 223 222 149 188 210 179 212 242 236 233 221 222 176 189 191 204 231 225 208 211 208 205 197 171 86 86 70 139 112 103 116 120 146 113 110 118 117 116 129 136 134 135 132 130 130 83 61 82 118 216 302 274 108 151 140 74 91 107 104 100 93 88 85 65 91 125 136 153 152 127 116 138 152 144 162 178 178 179 178 175 136 98 215 97 117 96 52 345 304 351
257 259 251 268 281 237 219 118 112 95 169 237 230 243 223 242 238 221 246 219 170 193 206 231 223 207 214 220 204 187 79 92 102 149 134 132 108 122 133 134 110 120 120 124 138 138 140 142 146 145 143 139 128 147 142 145 211 267 123 76 54 69 86 82 87 88 110 114 98 100 127 172 167 151 126 88 85 107 111 113 109 94 79 52 60 68 188 155 164 163 142 134 136 120 189 68 28
239 252 255 255 262 244 239 126 180 131 174 195 249 246 251 229 230 234 241 178 156 192 214 230 212 203 208 225 38 64 93 97 128 120 165 123 124 134 145 144 142 133 131 131 147 141 146 147 150 150 153 147 159 163 168 137 259 133 79 78 74 81 92 103 121 126 90 93 110 102 108 76 68 72 88 108 91 73 56 41 101 97 61 39 118 103 51 347 24 44 77 85 145 154 120 179 49
253 238 248 265 269 281 249 186 206 183 251 200 206 247 246 230 218 241 205 139 205 215 226 226 225 196 203 132 99 107 83 120 149 180 136 120 114 129 137 148 143 141 128 138 146 161 153 151 153 160 154 157 157 169 137 110 218 115 94 90 101 103 115 156 107 119 147 129 109 158 136 127 106 53 57 67 97 121 133 145 114 110 134 122 60 65 120 129 77 43 50 29 52 55 137 127 69
247 228 224 245 262 274 281 194 158 211 224 240 197 240 226 230 234 222 190 192 199 216 218 224 224 202 171 132 96 101 128 178 204 94 110 114 127 139 153 153 140 144 142 149 160 164 164 155 154 154 143 140 135 126 106 90 148 97 95 101 124 157 169 102 115 90 97 107 100 80 72 66 78 74 70 82 84 68 51 26 21 133 145 114 134 108 73 34 80 62 50 49 54 67 79 105 90
238 258 216 219 241 251 265 279 266 232 236 194 223 206 253 227 222 215 198 201 201 201 212 234 217 198 149 91 95 96 158 256 90 148 121 129 135 140 160 136 141 155 155 163 166 167 155 149 150 141 127 115 102 96 110 252 106 96 115 135 184 200 105 111 98 100 97 97 111 119 115 103 108 128 136 129 109 91 97 93 45 359 11 150 120 72 75 58 45 70 63 71 69 54 60 83 110
242 239 252 213 215 232 241 262 250 238 218 239 228 225 234 252 212 204 212 212 202 196 197 215 232 109 82 91 89 118 185 205 193 163 127 140 144 147 157 151 150 162 170 169 157 154 156 152 144 129 116 113 104 111 147 71 65 110 107 168 187 85 107 110 115 115 110 129 142 137 104 95 77 84 90 93 108 113 96 68 51 33 21 48 90 93 88 97 89 70 65 64 97 76 68 84 93
234 261 289 290 241 224 230 232 244 217 218 247 237 234 267 247 222 204 214 217 197 203 190 193 219 108 109 100 133 182 190 173 185 163 129 135 145 146 160 146 151 168 178 110 135 143 156 152 146 142 133 130 139 137 103 88 77 56 21 320 109 113 126 150 142 124 135 142 100 97 102 105 110 66 57 57 62 76 91 96 67 43 49 68 95 114 120 106 105 109 99 80 80 99 93 96 100
237 219 241 244 245 224 222 238 239 62 250 237 251 213 247 264 207 202 208 207 195 198 188 156 198 142 127 139 163 177 167 183 159 140 134 133 144 149 155 146 154 153 146 142 128 132 150 132 120 126 129 131 133 126 123 114 123 121 104 310 161 153 162 150 133 144 138 119 130 135 128 126 94 88 75 72 71 55 47 70 98 84 42 30 67 87 83 95 98 94 104 84 62 65 66 52 37
215 237 232 234 231 230 230 219 229 233 236 234 232 221 189 253 221 198 330 156 180 95 83 172 161 113 128 140 165 140 146 169 148 150 139 128 137 150 153 151 161 157 159 156 137 141 148 124 123 124 128 124 130 134 123 130 130 119 141 237 168 159 155 146 160 153 148 146 152 132 117 102 107 110 91 82 83 92 89 73 61 53 43 44 39 35 74 94 96 80 62 65 72 61 66 63 42
203 204 230 232 211 211 224 213 217 222 241 218 240 235 204 234 140 99 66 43 252 134 151 144 159 136 132 144 147 139 161 159 156 152 142 130 142 153 156 157 160 152 167 157 157 160 159 145 149 151 156 132 128 145 150 149 150 156 195 201 144 146 147 163 167 157 159 153 142 126 133 126 123 112 115 118 129 103 70 63 68 58 48 32 35 40 100 105 86 85 84 76 60 77 77 76 66
232 221 216 227 217 207 238 225 236 242 226 229 236 283 260 106 122 105 104 69 40 79 118 194 170 152 153 146 149 139 153 152 150 149 138 140 143 158 156 154 164 166 167 163 160 167 163 157 155 155 162 140 144 154 152 149 156 192 207 147 137 146 164 171 165 163 157 151 139 141 134 135 126 116 124 118 106 93 80 81 77 91 91 87 70 42 32 48 86 82 69 71 83 76 72 69 75
222 237 232 225 232 213 221 227 224 228 243 223 215 188 169 126 337 133 109 92 83 82 79 69 82 87 99 120 133 138 142 142 133 110 110 134 151 157 151 152 162 172 166 164 164 170 170 162 160 155 152 146 156 155 149 148 148 226 221 127 144 170 160 174 169 161 162 133 138 143 131 123 116 130 122 107 94 106 123 109 110 103 99 99 105 82 57 67 68 84 108 112 93 84 100 98 73
198 219 236 235 225 72 260 243 290 16 313 302 263 201 347 128 240 62 92 96 87 77 81 80 83 86 87 95 104 109 100 102 84 114 113 60 329 175 150 154 161 169 167 170 168 171 173 168 167 152 143 146 152 149 146 149 170 215 174 141 162 174 169 171 160 159 138 133 144 136 127 120 122 113 108 118 131 119 110 123 123 123 119 102 83 76 73 67 72 72 65 65 74 67 70 74 80
307 210 219 231 179 207 234 173 226 111 270 259 102 293 90 138 132 154 133 119 82 57 62 82 84 87 91 86 71 64 110 130 136 135 109 92 115 304 162 164 166 171 175 173 170 167 177 174 152 139 144 163 162 151 155 168 185 187 154 152 169 169 174 163 157 157 136 136 144 122 123 123 111 114 125 127 124 139 156 123 100 85 77 83 86 101 110 83 86 96 85 77 78 76 76 70 64
169 267 236 265 228 210 197 213 14 252 249 233 197 149 207 209 201 173 159 128 89 79 83 79 87 89 85 83 92 81 0 320 126 78 70 106 164 246 244 160 157 159 172 171 163 161 171 172 132 171 166 168 141 145 152 168 169 153 144 145 161 171 166 144 138 130 121 116 118 123 116 108 120 122 134 138 143 151 128 114 120 116 131 134 117 90 84 100 75 68 83 91 106 97 79 70 72
221 224 347 313 20 255 197 203 165 255 255 249 220 199 207 200 195 160 144 142 102 100 113 111 113 122 116 133 131 123 112 93 76 125 130 156 192 212 203 147 144 153 154 173 142 146 167 150 140 179 179 157 140 172 156 166 204 143 134 141 153 158 128 128 126 121 122 129 136 122 119 120 118 133 135 152 152 155 135 130 125 125 99 79 75 83 98 87 110 92 92 80 74 87 100 96 93
251 204 191 257 206 260 271 234 274 196 221 242 224 214 192 25 8 184 153 141 130 126 124 111 115 121 120 142 135 125 110 116 183 176 168 175 208 195 153 137 120 110 109 140 155 133 125 126 131 150 142 138 152 164 160 212 226 134 137 152 157 159 154 137 129 133 142 145 135 121 115 120 126 133 146 147 166 148 155 140 133 120 115 97 96 67 98 124 120 145 103 92 108 127 105 83 66
208 230 240 200 238 250 242 129 256 243 248 236 242 238 69 49 345 202 151 131 142 143 144 146 145 144 143 144 140 147 150 159 181 200 161 163 163 145 138 131 124 115 110 112 139 133 133 132 117 121 139 143 148 158 175 192 191 158 154 162 172 176 162 152 138 138 149 141 130 130 128 119 129 139 142 164 151 162 155 156 141 143 140 131 134 148 60 91 71 84 90 112 186 118 108 109 120
263 237 228 234 205 216 205 226 188 255 274 259 270 56 51 27 353 49 110 134 134 136 145 141 147 151 164 165 166 178 173 173 151 147 145 145 139 138 135 126 131 138 136 133 130 147 136 136 139 138 150 150 146 145 160 167 200 178 174 166 167 188 172 143 126 143 148 143 132 142 133 125 133 154 150 180 166 163 163 171 159 155 150 149 154 134 205 103 70 56 54 355 26 341 78 74 95